{"data":{"norad_id":68438,"intl_designator":"2026-067Y","name":"TRANSPORTER-16 OBJECT Y","alt_names":[],"object_type":"PAYLOAD","status":"ACTIVE","operator":null,"country":"TBD","launch_date":"2026-03-30","launch_site_code":"AFWTR","launch_vehicle":null,"mission":null,"orbit_class":"UNKNOWN","rcs_meters":null,"size_class":null,"mass_kg":null,"dimensions":null,"purposes":[],"wikipedia_slug":null,"has_3d_model":false,"image_url":null,"decayed_at":null,"tle_current":{"epoch":"2026-09-19T07:22:54.283872Z","epoch_age_seconds":172236,"freshness":"FRESH","line1":"1 68438U 26067Y   26262.30757273  .00013476  00000+0  58400-3 0  9992","line2":"2 68438  97.4618 219.9046 0005075  80.3766 279.8044 15.22493262 26259","mean_motion":15.22493262,"eccentricity":0.0005075,"inclination_deg":97.4618,"raan_deg":219.9046,"arg_perigee_deg":80.3766,"mean_anomaly_deg":279.8044,"bstar":0.000584,"rev_number":2625,"period_min":94.581699370437,"perigee_km":494.83320820845,"apogee_km":501.81281512029,"semimajor_km":6876.4600116644,"source":"CELESTRAK","updated_at":"2026-09-20T09:00:24.204526Z"}}}